Home > Weather > Libreville > Past weeks

Flag for Gabon Past Weather in Libreville, Gabon — Yesterday and Last 2 Weeks

Now
81 °F

Passing clouds.


Feels Like: 85 °F
Forecast: 78 / 83 °F
Wind: 7 mph from Southwest

Location: Libreville Airport

Current Time: Jun 27, 2016 at 7:34:28 PM

Latest Report: Jun 27, 2016 at 6:00 PM


Visibility: 5 mi

Pressure: 29.92 "Hg

Humidity: 79%

Dew Point: 73 °F

Location of LibrevilleLocation

Past Weather in Libreville — Graph

°F

Libreville Temperature Yesterday

Maximum temperature yesterday: 81 °F (at 11:00 AM)
Minimum temperature yesterday: 75 °F (at 6:00 AM)
Average temperature yesterday: 78 °F

High & Low Weather Summary for the Past Weeks

 TemperatureHumidityPressure
High84 °F (Jun 16, 2:00 PM)100% (Jun 27, 4:00 AM)30.07 "Hg (Jun 27, 4:00 AM)
Low73 °F (Jun 15, 7:00 AM)66% (Jun 20, 3:00 PM)29.86 "Hg (Jun 24, 3:00 PM)
Average79 °F81%29.98 "Hg
* Reported Jun 12 6:00 PM — Jun 27 6:00 PM, Libreville, Weather by CustomWeather, © 2016

Note: Actual official high and low records may vary slightly from our data, if they occured in-between our weather recording intervals... More about our weather records

Advertising

Libreville Weather History for the Previous 24 Hours

Scroll right to see more
 ConditionsComfort  
Time TempWeatherWind HumidityBarometerVisibility
6:00 PM
Mon, Jun 27
81 °FPassing clouds.7 mph79%29.92 "Hg5 mi
5:00 PM82 °FPassing clouds.7 mph74%29.92 "Hg5 mi
4:00 PM84 °FPassing clouds.7 mph70%29.92 "Hg5 mi
3:00 PM82 °FPassing clouds.8 mph74%29.95 "Hg5 mi
2:00 PM82 °FPassing clouds.7 mph70%29.95 "Hg5 mi
1:00 PM84 °FPassing clouds.5 mph70%29.98 "Hg5 mi
12:00 PM81 °FScattered clouds.8 mph79%29.98 "Hg5 mi
11:00 AM81 °FScattered clouds.9 mph79%30.01 "Hg4 mi
10:00 AM81 °FPassing clouds.9 mph79%30.04 "Hg5 mi
9:00 AM79 °FPassing clouds.9 mph84%30.01 "Hg5 mi
8:00 AM77 °FPassing clouds.7 mph89%30.01 "Hg4 mi
7:00 AM77 °FPassing clouds.7 mph89%29.98 "Hg4 mi
6:00 AM77 °FPassing clouds.8 mph89%29.98 "HgN/A
5:00 AM75 °FPassing clouds.2 mph100%29.98 "HgN/A
4:00 AM75 °FPassing clouds.5 mph100%29.98 "HgN/A
3:00 AM77 °FPassing clouds.2 mph94%29.98 "HgN/A
2:00 AM79 °FPassing clouds.2 mph89%29.98 "HgN/A
1:00 AM77 °FPassing clouds.2 mph89%29.98 "HgN/A
12:00 AM79 °FPassing clouds.3 mph89%29.98 "HgN/A
11:00 PM
Sun, Jun 26
79 °FPassing clouds.3 mph84%30.01 "HgN/A
10:00 PM79 °FPassing clouds.6 mph84%29.98 "HgN/A
9:00 PM77 °FPassing clouds.7 mph94%29.98 "HgN/A
8:00 PM77 °FPassing clouds.7 mph94%29.95 "Hg4 mi
7:00 PM79 °FPassing clouds.7 mph89%29.95 "Hg4 mi
Weather by CustomWeather, © 2016

See weather overviewHow to use our weather pages